FW6664 Weather Reports


Display with metric or nautical units.
time (UTC)temp
F
wind
direction
speed
MPH
gust
MPH
rain 1hr
in
rain 24hr
in
rain mn
in
humidity
%
barometer
mb
20260904001023 75 297 6.0 8.0 0.00 0.00 0.00 33 1017.0
20260904000859 75 288 9.0 0.0 0.00 0.00 0.00 33 1017.0
20260904000553 75 272 7.0 8.0 0.00 0.00 0.00 33 1017.0
20260904000355 75 270 10.0 0.0 0.00 0.00 0.00 33 1017.0
20260904000037 75 262 4.0 9.0 0.00 0.00 0.00 33 1017.0
20260903235828 75 227 8.0 0.0 0.00 0.00 0.00 33 1017.0
20260903235521 75 216 7.0 9.0 0.00 0.00 0.00 33 1017.0
20260903235346 76 223 7.0 0.0 0.00 0.00 0.00 33 1017.0
20260903235014 76 237 4.0 7.0 0.00 0.00 0.00 33 1017.0
20260903234842 76 275 10.0 0.0 0.00 0.00 0.00 33 1017.0
20260903234508 76 223 6.0 9.0 0.00 0.00 0.00 33 1017.0
20260903234338 77 210 8.0 0.0 0.00 0.00 0.00 33 1017.0
20260903234059 76 246 5.0 9.0 0.00 0.00 0.00 33 1017.0
20260903234003 76 264 6.0 9.0 0.00 0.00 0.00 33 1017.0
20260903233838 77 294 5.0 0.0 0.00 0.00 0.00 33 1017.0
20260903233553 76 284 5.0 9.0 0.00 0.00 0.00 33 1017.0
20260903233334 77 276 4.0 0.0 0.00 0.00 0.00 33 1017.0
20260903233048 76 205 7.0 9.0 0.00 0.00 0.00 33 1017.0
20260903232831 77 215 10.0 0.0 0.00 0.00 0.00 33 1017.0
20260903232542 76 291 3.0 10.0 0.00 0.00 0.00 33 1017.0
20260903232327 76 286 6.0 0.0 0.00 0.00 0.00 33 1017.0
20260903232037 76 200 6.0 10.0 0.00 0.00 0.00 33 1017.0
20260903231846 77 206 6.0 0.0 0.00 0.00 0.00 33 1017.0
20260903231529 76 281 3.0 10.0 0.00 0.00 0.00 33 1017.0
20260903231342 77 230 6.0 0.0 0.00 0.00 0.00 33 1017.0
20260903231023 77 246 4.0 10.0 0.00 0.00 0.00 33 1017.0
20260903230837 78 218 10.0 0.0 0.00 0.00 0.00 33 1017.0
20260903230517 77 267 4.0 8.0 0.00 0.00 0.00 33 1017.0
20260903230334 77 284 8.0 0.0 0.00 0.00 0.00 33 1017.0
20260903230015 77 225 4.0 7.0 0.00 0.00 0.00 33 1017.0
20260903225831 77 255 6.0 0.0 0.00 0.00 0.00 33 1017.0
20260903225511 76 260 6.0 7.0 0.00 0.00 0.00 33 1017.0
20260903225329 77 203 6.0 0.0 0.00 0.00 0.00 33 1017.0
20260903225101 77 233 5.0 10.0 0.00 0.00 0.00 33 1017.0
20260903225003 77 234 5.0 10.0 0.00 0.00 0.00 33 1017.0
20260903224844 77 152 8.0 0.0 0.00 0.00 0.00 33 1017.0
20260903224553 77 143 4.0 11.0 0.00 0.00 0.00 33 1017.0
20260903224339 77 211 3.0 0.0 0.00 0.00 0.00 33 1017.0
20260903224044 76 275 8.0 11.0 0.00 0.00 0.00 33 1017.0
20260903223856 77 254 12.0 0.0 0.00 0.00 0.00 33 1017.0
20260903223520 76 245 5.0 9.0 0.00 0.00 0.00 33 1017.0
20260903223333 77 250 7.0 0.0 0.00 0.00 0.00 33 1017.0
20260903223017 76 207 8.0 13.0 0.00 0.00 0.00 33 1017.0
20260903222830 77 151 5.0 0.0 0.00 0.00 0.00 33 1017.0
20260903222510 77 211 7.0 13.0 0.00 0.00 0.00 33 1017.0
20260903222325 78 236 6.0 0.0 0.00 0.00 0.00 33 1017.0
20260903222041 77 274 6.0 10.0 0.00 0.00 0.00 33 1017.0
20260903221841 78 247 4.0 0.0 0.00 0.00 0.00 33 1017.0
20260903221531 78 174 5.0 8.0 0.00 0.00 0.00 33 1017.0
20260903221337 78 280 8.0 0.0 0.00 0.00 0.00 33 1017.0
20260903221024 78 250 8.0 10.0 0.00 0.00 0.00 33 1017.0
20260903220836 78 294 10.0 0.0 0.00 0.00 0.00 33 1017.0
20260903220515 78 255 4.0 10.0 0.00 0.00 0.00 33 1017.0
20260903220331 78 249 6.0 0.0 0.00 0.00 0.00 33 1017.0
20260903220009 78 248 4.0 9.0 0.00 0.00 0.00 33 1017.0
20260903215827 78 246 9.0 0.0 0.00 0.00 0.00 33 1017.0
20260903215559 78 240 6.0 9.0 0.00 0.00 0.00 33 1017.0
20260903215503 78 219 6.0 9.0 0.00 0.00 0.00 33 1017.0
20260903215342 79 197 11.0 0.0 0.00 0.00 0.00 33 1017.0
20260903215033 78 274 8.0 9.0 0.00 0.00 0.00 33 1017.0
20260903214840 79 255 6.0 0.0 0.00 0.00 0.00 33 1017.0
20260903214533 78 236 6.0 9.0 0.00 0.00 0.00 33 1017.0
20260903214337 78 254 10.0 0.0 0.00 0.00 0.00 33 1017.0
20260903214023 77 268 8.0 9.0 0.00 0.00 0.00 33 1017.0
20260903213835 78 227 11.0 0.0 0.00 0.00 0.00 33 1017.0
20260903213521 78 158 5.0 10.0 0.00 0.00 0.00 33 1017.0
20260903213332 79 215 8.0 0.0 0.00 0.00 0.00 33 1017.0
20260903213019 78 266 6.0 10.0 0.00 0.00 0.00 33 1017.0
20260903212829 78 277 9.0 0.0 0.00 0.00 0.00 33 1017.0
20260903212510 77 221 6.0 8.0 0.00 0.00 0.00 33 1017.0
20260903212345 77 279 6.0 0.0 0.00 0.00 0.00 33 1017.0
20260903212059 77 236 4.0 13.0 0.00 0.00 0.00 33 1017.0
20260903212003 77 229 4.0 13.0 0.00 0.00 0.00 33 1017.0
20260903211841 77 215 9.0 0.0 0.00 0.00 0.00 33 1017.0
20260903211557 77 232 10.0 13.0 0.00 0.00 0.00 33 1017.0
20260903211337 77 267 3.0 0.0 0.00 0.00 0.00 33 1017.0
20260903211047 77 238 7.0 11.0 0.00 0.00 0.00 33 1017.0
20260903210833 78 244 6.0 0.0 0.00 0.00 0.00 33 1017.0
20260903210541 77 263 3.0 10.0 0.00 0.00 0.00 33 1017.0
20260903210330 78 207 4.0 0.0 0.00 0.00 0.00 33 1017.0
20260903210037 77 277 6.0 8.0 0.00 0.00 0.00 33 1017.0
20260903205827 78 268 11.0 0.0 0.00 0.00 0.00 33 1017.0
20260903205530 78 284 6.0 8.0 0.00 0.00 0.00 33 1017.0
20260903205324 78 259 3.0 0.0 0.00 0.00 0.00 33 1017.0
20260903205024 77 231 5.0 6.0 0.00 0.00 0.00 33 1017.0
20260903204841 78 230 5.0 0.0 0.00 0.00 0.00 33 1017.0
20260903204520 77 273 3.0 13.0 0.00 0.00 0.00 33 1017.0
20260903204341 77 224 4.0 0.0 0.00 0.00 0.00 33 1017.0
20260903204015 77 242 5.0 13.0 0.00 0.00 0.00 33 1017.0
20260903203837 78 219 9.0 0.0 0.00 0.00 0.00 33 1017.0
20260903203508 77 269 6.0 9.0 0.00 0.00 0.00 33 1017.0
20260903203333 78 216 6.0 0.0 0.00 0.00 0.00 33 1017.0
20260903203131 78 218 5.0 8.0 0.00 0.00 0.00 33 1017.0
20260903202828 79 219 9.0 0.0 0.00 0.00 0.00 33 1017.0
20260903202552 78 211 5.0 8.0 0.00 0.00 0.00 33 1017.0
20260903202325 78 271 12.0 0.0 0.00 0.00 0.00 33 1017.0
20260903202046 78 279 6.0 9.0 0.00 0.00 0.00 33 1017.0
20260903201904 78 299 5.0 0.0 0.00 0.00 0.00 33 1017.0
20260903201531 77 259 5.0 10.0 0.00 0.00 0.00 33 1017.0
20260903201336 77 237 6.0 0.0 0.00 0.00 0.00 33 1017.0
20260903201011 77 227 7.0 10.0 0.00 0.00 0.00 33 1017.0
20260903200834 78 267 7.0 0.0 0.00 0.00 0.00 33 1017.0
20260903200507 77 230 7.0 10.0 0.00 0.00 0.00 33 1017.0
20260903200351 78 276 7.0 0.0 0.00 0.00 0.00 33 1017.0
20260903200039 78 230 7.0 10.0 0.00 0.00 0.00 33 1017.0
20260903195849 78 267 4.0 0.0 0.00 0.00 0.00 33 1017.0
20260903195513 78 230 4.0 10.0 0.00 0.00 0.00 33 1017.0
20260903195341 79 241 8.0 0.0 0.00 0.00 0.00 33 1017.0
20260903195038 78 228 4.0 10.0 0.00 0.00 0.00 33 1017.0
20260903194836 79 247 5.0 0.0 0.00 0.00 0.00 33 1017.0
20260903194537 79 271 7.0 10.0 0.00 0.00 0.00 33 1017.0
20260903194355 79 295 5.0 0.0 0.00 0.00 0.00 33 1017.0
20260903194012 78 291 7.0 7.0 0.00 0.00 0.00 33 1017.0
20260903193832 78 294 6.0 0.0 0.00 0.00 0.00 33 1017.0
20260903193504 78 285 6.0 7.0 0.00 0.00 0.00 33 1017.0
20260903193329 79 260 7.0 0.0 0.00 0.00 0.00 33 1017.0
20260903193059 78 196 5.0 9.0 0.00 0.00 0.00 33 1017.0
20260903192826 79 229 9.0 0.0 0.00 0.00 0.00 33 1017.0
20260903192553 78 293 6.0 9.0 0.00 0.00 0.00 33 1017.0
20260903192325 79 275 9.0 0.0 0.00 0.00 0.00 33 1017.0
20260903192047 78 289 4.0 10.0 0.00 0.00 0.00 33 1017.0
20260903191843 79 220 6.0 0.0 0.00 0.00 0.00 33 1017.0
20260903191523 78 222 4.0 10.0 0.00 0.00 0.00 33 1017.0
20260903191338 79 250 5.0 0.0 0.00 0.00 0.00 33 1017.0
20260903191016 78 289 6.0 7.0 0.00 0.00 0.00 33 1017.0
20260903190835 79 207 8.0 0.0 0.00 0.00 0.00 33 1017.0
20260903190509 78 212 6.0 7.0 0.00 0.00 0.00 33 1017.0
20260903190331 79 218 8.0 0.0 0.00 0.00 0.00 33 1017.0
20260903190058 79 206 4.0 6.0 0.00 0.00 0.00 33 1017.0
20260903190002 79 288 3.0 6.0 0.00 0.00 0.00 33 1017.0
20260903185845 79 231 8.0 0.0 0.00 0.00 0.00 33 1017.0
20260903185552 79 218 3.0 6.0 0.00 0.00 0.00 33 1017.0
20260903185403 79 252 6.0 0.0 0.00 0.00 0.00 33 1017.0
20260903185027 79 215 2.0 8.0 0.00 0.00 0.00 33 1017.0
20260903184840 79 280 3.0 0.0 0.00 0.00 0.00 33 1017.0
20260903184520 78 275 3.0 8.0 0.00 0.00 0.00 33 1017.0
20260903184337 79 224 7.0 0.0 0.00 0.00 0.00 33 1017.0
20260903184012 79 208 7.0 8.0 0.00 0.00 0.00 33 1017.0
20260903183851 80 271 3.0 0.0 0.00 0.00 0.00 33 1017.0
20260903183539 79 248 5.0 7.0 0.00 0.00 0.00 33 1017.0
20260903183325 80 231 8.0 0.0 0.00 0.00 0.00 33 1017.0
20260903183041 79 231 3.0 6.0 0.00 0.00 0.00 33 1017.0
20260903182844 80 242 4.0 0.0 0.00 0.00 0.00 33 1017.0
20260903182531 79 235 3.0 6.0 0.00 0.00 0.00 33 1017.0
20260903182340 79 254 4.0 0.0 0.00 0.00 0.00 33 1017.0
20260903182058 79 218 4.0 6.0 0.00 0.00 0.00 33 1017.0
20260903182001 79 265 4.0 6.0 0.00 0.00 0.00 33 1017.0
20260903181834 79 266 6.0 0.0 0.00 0.00 0.00 33 1017.0
20260903181531 78 243 4.0 6.0 0.00 0.00 0.00 33 1017.0
20260903181353 79 241 5.0 0.0 0.00 0.00 0.00 33 1017.0
20260903181004 78 236 4.0 6.0 0.00 0.00 0.00 33 1017.0
20260903180828 79 254 3.0 0.0 0.00 0.00 0.00 33 1017.0
20260903180555 79 224 5.0 6.0 0.00 0.00 0.00 33 1017.0
20260903180324 79 295 3.0 0.0 0.00 0.00 0.00 33 1017.0
20260903175842 78 297 5.0 0.0 0.00 0.00 0.00 33 1017.0
20260903175548 77 222 2.0 6.0 0.00 0.00 0.00 33 1017.0
20260903175337 78 291 7.0 0.0 0.00 0.00 0.00 33 1017.0
20260903175039 77 283 4.0 6.0 0.00 0.00 0.00 33 1017.0
20260903174834 77 270 3.0 0.0 0.00 0.00 0.00 33 1017.0
20260903174533 76 279 4.0 6.0 0.00 0.00 0.00 33 1017.0
20260903174329 77 277 7.0 0.0 0.00 0.00 0.00 33 1017.0
20260903174033 76 235 1.0 2.0 0.00 0.00 0.00 33 1017.0
20260903173827 76 235 3.0 0.0 0.00 0.00 0.00 33 1017.0
20260903173523 76 222 2.0 4.0 0.00 0.00 0.00 33 1017.0
20260903173325 77 222 2.0 0.0 0.00 0.00 0.00 33 1017.0
20260903173020 76 286 1.0 4.0 0.00 0.00 0.00 33 1017.0
20260903172845 76 286 4.0 0.0 0.00 0.00 0.00 33 1017.0
20260903172515 76 290 1.0 4.0 0.00 0.00 0.00 33 1017.0
20260903172340 76 307 2.0 0.0 0.00 0.00 0.00 33 1017.0
20260903172011 75 249 1.0 2.0 0.00 0.00 0.00 33 1017.0
20260903171859 75 253 1.0 0.0 0.00 0.00 0.00 33 1017.0
20260903171556 74 252 1.0 3.0 0.00 0.00 0.00 33 1017.0
20260903171334 74 245 4.0 0.0 0.00 0.00 0.00 33 1017.0
20260903171037 73 242 2.0 3.0 0.00 0.00 0.00 33 1017.0
20260903170831 73 260 3.0 0.0 0.00 0.00 0.00 33 1017.0
20260903170530 72 223 1.0 4.0 0.00 0.00 0.00 33 1017.0
20260903170329 73 223 2.0 0.0 0.00 0.00 0.00 33 1017.0
20260903170027 72 226 1.0 4.0 0.00 0.00 0.00 33 1017.0
20260903165833 72 226 2.0 0.0 0.00 0.00 0.00 33 1017.0
20260903165519 71 241 2.0 4.0 0.00 0.00 0.00 33 1017.0
20260903165325 72 309 1.0 0.0 0.00 0.00 0.00 33 1017.0
20260903165052 71 309 3.0 4.0 0.00 0.00 0.00 33 1017.0
20260903164843 71 311 1.0 0.0 0.00 0.00 0.00 33 1017.0
20260903164601 70 311 1.0 4.0 0.00 0.00 0.00 33 1017.0
20260903164340 70 314 2.0 0.0 0.00 0.00 0.00 33 1017.0
20260903164041 70 314 2.0 4.0 0.00 0.00 0.00 33 1017.0
20260903163837 70 309 2.0 0.0 0.00 0.00 0.00 33 1017.0
20260903163533 70 295 2.0 3.0 0.00 0.00 0.00 33 1017.0
20260903163332 70 302 6.0 0.0 0.00 0.00 0.00 33 1017.0
20260903163026 69 326 1.0 4.0 0.00 0.00 0.00 33 1017.0
20260903162828 70 325 2.0 0.0 0.00 0.00 0.00 33 1017.0
20260903162521 70 287 2.0 4.0 0.00 0.00 0.00 33 1017.0
20260903162327 70 289 5.0 0.0 0.00 0.00 0.00 33 1017.0
20260903162017 69 347 2.0 3.0 0.00 0.00 0.00 33 1017.0
20260903161843 70 12 1.0 0.0 0.00 0.00 0.00 33 1017.0
20260903161504 69 23 0.0 2.0 0.00 0.00 0.00 33 1017.0
20260903161333 69 22 2.0 0.0 0.00 0.00 0.00 33 1017.0
20260903161034 69 23 2.0 2.0 0.00 0.00 0.00 33 1017.0
20260903160827 69 41 0.0 0.0 0.00 0.00 0.00 33 1017.0
20260903160523 69 41 1.0 1.0 0.00 0.00 0.00 33 1017.0
20260903160341 69 41 2.0 0.0 0.00 0.00 0.00 33 1017.0
20260903160009 68 41 0.0 0.0 0.00 0.00 0.00 33 1017.0
20260903155830 69 41 1.0 0.0 0.00 0.00 0.00 33 1017.0
20260903155600 68 41 0.0 1.0 0.00 0.00 0.00 33 1017.0
20260903155342 68 41 0.0 0.0 0.00 0.00 0.00 33 1017.0
20260903155023 68 41 0.0 1.0 0.00 0.00 0.00 33 1017.0
20260903154833 68 41 1.0 0.0 0.00 0.00 0.00 33 1017.0
20260903154522 68 41 0.0 1.0 0.00 0.00 0.00 33 1017.0
20260903154346 69 41 1.0 0.0 0.00 0.00 0.00 33 1017.0
20260903154103 69 41 0.0 1.0 0.00 0.00 0.00 33 1017.0
20260903154002 69 41 0.0 0.0 0.00 0.00 0.00 33 1017.0
20260903153838 69 41 1.0 0.0 0.00 0.00 0.00 33 1017.0
20260903153553 69 41 0.0 0.0 0.00 0.00 0.00 33 1017.0
20260903153330 69 41 0.0 0.0 0.00 0.00 0.00 33 1017.0
20260903153040 68 41 0.0 0.0 0.00 0.00 0.00 33 1017.0
20260903152904 68 41 2.0 0.0 0.00 0.00 0.00 33 1017.0
20260903152505 67 41 0.0 0.0 0.00 0.00 0.00 33 1017.0
20260903152351 68 41 0.0 0.0 0.00 0.00 0.00 33 1017.0
20260903152036 67 41 0.0 1.0 0.00 0.00 0.00 33 1017.0
20260903151843 67 41 1.0 0.0 0.00 0.00 0.00 33 1017.0
20260903151558 66 41 1.0 1.0 0.00 0.00 0.00 33 1017.0
20260903151332 66 41 1.0 0.0 0.00 0.00 0.00 33 1017.0
20260903151046 65 41 0.0 1.0 0.00 0.00 0.00 33 1017.0
20260903150826 66 41 1.0 0.0 0.00 0.00 0.00 33 1017.0
20260903150540 65 41 0.0 1.0 0.00 0.00 0.00 33 1017.0
20260903150339 65 41 1.0 0.0 0.00 0.00 0.00 33 1017.0
20260903150027 64 41 0.0 1.0 0.00 0.00 0.00 33 1017.0
20260903145829 64 41 0.0 0.0 0.00 0.00 0.00 33 1017.0
20260903145518 64 41 0.0 1.0 0.00 0.00 0.00 33 1017.0
20260903145343 64 41 1.0 0.0 0.00 0.00 0.00 33 1017.0
20260903145101 63 41 0.0 1.0 0.00 0.00 0.00 33 1017.0
20260903145004 63 41 0.0 1.0 0.00 0.00 0.00 33 1017.0
20260903144829 63 41 0.0 0.0 0.00 0.00 0.00 33 1017.0
20260903144559 63 41 1.0 2.0 0.00 0.00 0.00 33 1017.0
20260903144406 63 41 1.0 0.0 0.00 0.00 0.00 33 1017.0
20260903144019 62 41 0.0 2.0 0.00 0.00 0.00 33 1017.0
20260903143835 62 41 2.0 0.0 0.00 0.00 0.00 33 1017.0
20260903143506 62 41 0.0 0.0 0.00 0.00 0.00 33 1017.0
20260903143327 62 41 1.0 0.0 0.00 0.00 0.00 33 1017.0
20260903143056 61 41 0.0 0.0 0.00 0.00 0.00 33 1017.0
20260903142839 61 41 0.0 0.0 0.00 0.00 0.00 33 1017.0
20260903142543 61 41 0.0 0.0 0.00 0.00 0.00 33 1017.0
20260903142353 61 41 0.0 0.0 0.00 0.00 0.00 33 1017.0
20260903142018 60 41 0.0 0.0 0.00 0.00 0.00 33 1017.0
20260903141831 60 41 1.0 0.0 0.00 0.00 0.00 33 1017.0
20260903090530 62 279 0.0 0.0 0.00 0.00 0.00 33 1017.0
20260903090335 62 279 0.0 0.0 0.00 0.00 0.00 33 1017.0
20260903090022 62 279 0.0 0.0 0.00 0.00 0.00 33 1017.0
20260903030339 68 276 4.0 0.0 0.00 0.00 0.00 33 1017.0
20260903030100 67 270 3.0 3.0 0.00 0.00 0.00 33 1017.0
20260903021032 71 257 3.0 6.0 0.00 0.00 0.00 33 1017.0
20260903020843 72 264 9.0 0.0 0.00 0.00 0.00 33 1017.0
20260903020507 72 252 2.0 5.0 0.00 0.00 0.00 33 1017.0
20260903020337 73 242 1.0 0.0 0.00 0.00 0.00 33 1017.0
20260903020056 73 276 3.0 5.0 0.00 0.00 0.00 33 1017.0
20260903015832 74 266 3.0 0.0 0.00 0.00 0.00 33 1017.0
20260903015548 73 303 1.0 3.0 0.00 0.00 0.00 33 1017.0
20260903015328 74 303 2.0 0.0 0.00 0.00 0.00 33 1017.0
20260903015043 73 305 2.0 6.0 0.00 0.00 0.00 33 1017.0
20260903014825 74 279 2.0 0.0 0.00 0.00 0.00 33 1017.0
20260903014522 73 286 2.0 6.0 0.00 0.00 0.00 33 1017.0
20260903014324 74 264 3.0 0.0 0.00 0.00 0.00 33 1017.0
20260903014014 73 284 3.0 6.0 0.00 0.00 0.00 33 1017.0
20260903013840 74 212 8.0 0.0 0.00 0.00 0.00 33 1017.0
20260903013506 74 221 3.0 4.0 0.00 0.00 0.00 33 1017.0
20260903013358 74 221 4.0 0.0 0.00 0.00 0.00 33 1017.0
20260903013043 74 213 3.0 5.0 0.00 0.00 0.00 33 1017.0
20260903012832 74 238 4.0 0.0 0.00 0.00 0.00 33 1017.0
20260903012534 74 218 4.0 5.0 0.00 0.00 0.00 33 1017.0
20260903012329 75 235 3.0 0.0 0.00 0.00 0.00 33 1017.0
20260903012028 75 223 3.0 5.0 0.00 0.00 0.00 33 1017.0
20260903011829 75 282 4.0 0.0 0.00 0.00 0.00 33 1017.0
20260903011558 74 274 4.0 5.0 0.00 0.00 0.00 33 1017.0
20260903011504 75 218 3.0 4.0 0.00 0.00 0.00 33 1017.0
20260903011345 75 272 4.0 0.0 0.00 0.00 0.00 33 1017.0
20260903011033 75 247 4.0 4.0 0.00 0.00 0.00 33 1017.0
20260903010903 76 263 4.0 0.0 0.00 0.00 0.00 33 1017.0
20260903010504 75 275 4.0 4.0 0.00 0.00 0.00 33 1017.0
20260903010337 76 305 2.0 0.0 0.00 0.00 0.00 33 1017.0
20260903010056 76 210 3.0 4.0 0.00 0.00 0.00 33 1017.0
20260903005833 76 287 5.0 0.0 0.00 0.00 0.00 33 1017.0
20260903005554 76 234 3.0 5.0 0.00 0.00 0.00 33 1017.0
20260903005350 76 259 6.0 0.0 0.00 0.00 0.00 33 1017.0
20260903005021 76 217 4.0 5.0 0.00 0.00 0.00 33 1017.0
20260903004845 77 221 2.0 0.0 0.00 0.00 0.00 33 1017.0
20260903004516 77 230 4.0 6.0 0.00 0.00 0.00 33 1017.0
20260903004340 77 283 2.0 0.0 0.00 0.00 0.00 33 1017.0
20260903004007 77 308 2.0 6.0 0.00 0.00 0.00 33 1017.0
20260903003835 77 310 2.0 0.0 0.00 0.00 0.00 33 1017.0
20260903003558 77 276 6.0 6.0 0.00 0.00 0.00 33 1017.0
20260903003503 77 291 6.0 6.0 0.00 0.00 0.00 33 1017.0
20260903003332 78 259 8.0 0.0 0.00 0.00 0.00 33 1017.0
20260903003056 77 275 2.0 6.0 0.00 0.00 0.00 33 1017.0
20260903002828 77 241 6.0 0.0 0.00 0.00 0.00 33 1017.0
20260903002545 77 257 5.0 6.0 0.00 0.00 0.00 33 1017.0
20260903002405 77 224 5.0 0.0 0.00 0.00 0.00 33 1017.0
20260903002020 77 218 2.0 6.0 0.00 0.00 0.00 33 1017.0
20260903001839 77 284 8.0 0.0 0.00 0.00 0.00 33 1017.0
20260903001550 77 219 3.0 6.0 0.00 0.00 0.00 33 1017.0
20260903001338 77 201 5.0 0.0 0.00 0.00 0.00 33 1017.0